Location: Catenanuova
(37.5690°N, 14.6870°E)
Time: 11:09:23
(UTC+02:00)

Hubble Space Telescope - Pass Details

Date: 27 May 2024
Orbit: 511 x 514 km, 28.5° (Epoch: 13 June)

Event Time Altitude Azimuth Distance (km) Brightness Sun altitude
Rises 21:26:29 0° 235° (SW) 2,607 4.5 -12.7°
Reaches altitude 10° 21:29:12 10° 216° (SW) 1,721 3.3 -13.1°
Maximum altitude 21:32:02 19° 171° (S) 1,266 2.2 -13.6°
Enters shadow 21:32:22 19° 164° (SSE) 1,273 2.2 -13.6°
